| time (UTC) | temp F | wind direction | speed MPH | gust MPH | rain 1hr in | rain 24hr in | rain mn in | humidity % | barometer mb |
| 20260508013026 | 56 | 81 | 7.0 | 15.0 | 0.00 | 0.00 | 0.00 | 89 | 1016.3 |
| 20260508011524 | 56 | 79 | 9.0 | 18.0 | 0.00 | 0.00 | 0.00 | 88 | 1016.2 |
| 20260508010025 | 57 | 83 | 6.0 | 14.0 | 0.00 | 0.00 | 0.00 | 88 | 1016.2 |
| 20260508004524 | 57 | 86 | 10.0 | 19.0 | 0.00 | 0.00 | 0.00 | 87 | 1016.2 |
| 20260508003023 | 57 | 98 | 8.0 | 16.0 | 0.00 | 0.00 | 0.00 | 87 | 1016.1 |
| 20260508001522 | 58 | 72 | 6.0 | 16.0 | 0.00 | 0.00 | 0.00 | 86 | 1016.1 |
| 20260508000022 | 58 | 76 | 9.0 | 14.0 | 0.00 | 0.00 | 0.00 | 86 | 1016.1 |
| 20260507234522 | 58 | 94 | 9.0 | 16.0 | 0.00 | 0.00 | 0.00 | 86 | 1016.1 |
| 20260507233032 | 58 | 77 | 5.0 | 15.0 | 0.00 | 0.00 | 0.00 | 88 | 1016.1 |
| 20260507231518 | 58 | 80 | 6.0 | 15.0 | 0.00 | 0.00 | 0.00 | 89 | 1016.2 |
| 20260507230017 | 56 | 101 | 7.0 | 14.0 | 0.00 | 0.00 | 0.00 | 91 | 1016.3 |
| 20260507224517 | 56 | 100 | 6.0 | 16.0 | 0.00 | 0.00 | 0.00 | 91 | 1016.5 |
| 20260507223016 | 56 | 76 | 7.0 | 15.0 | 0.00 | 0.00 | 0.00 | 91 | 1016.5 |
| 20260507221517 | 57 | 101 | 8.0 | 15.0 | 0.00 | 0.00 | 0.00 | 90 | 1016.6 |
| 20260507220013 | 56 | 56 | 8.0 | 13.0 | 0.00 | 0.00 | 0.00 | 91 | 1016.7 |
| 20260507214513 | 56 | 49 | 6.0 | 14.0 | 0.00 | 0.00 | 0.00 | 91 | 1016.9 |
| 20260507213016 | 57 | 101 | 8.0 | 14.0 | 0.00 | 0.00 | 0.00 | 90 | 1017.0 |
| 20260507211508 | 57 | 85 | 9.0 | 16.0 | 0.00 | 0.00 | 0.00 | 89 | 1017.1 |
| 20260507210008 | 57 | 103 | 11.0 | 16.0 | 0.00 | 0.00 | 0.00 | 89 | 1017.1 |
| 20260507204505 | 58 | 106 | 9.0 | 13.0 | 0.00 | 0.00 | 0.00 | 90 | 1017.2 |
| 20260507203005 | 57 | 93 | 8.0 | 16.0 | 0.00 | 0.00 | 0.00 | 90 | 1017.2 |
| 20260507201509 | 57 | 142 | 8.0 | 18.0 | 0.00 | 0.00 | 0.00 | 90 | 1017.3 |
| 20260507200006 | 57 | 94 | 7.0 | 16.0 | 0.00 | 0.00 | 0.00 | 90 | 1017.3 |
| 20260507194501 | 57 | 104 | 7.0 | 15.0 | 0.00 | 0.00 | 0.00 | 91 | 1017.4 |
| 20260507193100 | 56 | 87 | 7.0 | 15.0 | 0.00 | 0.00 | 0.00 | 91 | 1017.4 |
| 20260507191552 | 56 | 69 | 7.0 | 15.0 | 0.00 | 0.00 | 0.00 | 92 | 1017.5 |
| 20260507190054 | 56 | 84 | 8.0 | 15.0 | 0.00 | 0.00 | 0.00 | 93 | 1017.5 |
| 20260507184547 | 56 | 96 | 8.0 | 17.0 | 0.00 | 0.00 | 0.00 | 94 | 1017.6 |
| 20260507183048 | 55 | 43 | 8.0 | 14.0 | 0.00 | 0.00 | 0.00 | 93 | 1017.7 |
| 20260507181552 | 55 | 115 | 9.0 | 15.0 | 0.00 | 0.00 | 0.00 | 94 | 1017.6 |
| 20260507180044 | 55 | 98 | 8.0 | 14.0 | 0.00 | 0.00 | 0.00 | 95 | 1017.6 |
| 20260507174553 | 55 | 69 | 7.0 | 12.0 | 0.00 | 0.00 | 0.00 | 95 | 1017.4 |
| 20260507173103 | 55 | 78 | 8.0 | 12.0 | 0.00 | 0.00 | 0.00 | 97 | 1017.5 |
| 20260507171547 | 54 | 86 | 5.0 | 10.0 | 0.00 | 0.00 | 0.00 | 98 | 1017.5 |
| 20260507170041 | 54 | 56 | 4.0 | 11.0 | 0.00 | 0.00 | 0.00 | 98 | 1017.6 |
| 20260507164547 | 54 | 63 | 4.0 | 10.0 | 0.00 | 0.00 | 0.00 | 98 | 1017.7 |
| 20260507163037 | 53 | 58 | 4.0 | 11.0 | 0.00 | 0.00 | 0.00 | 98 | 1017.7 |
| 20260507161553 | 53 | 82 | 5.0 | 9.0 | 0.00 | 0.00 | 0.00 | 98 | 1017.6 |
| 20260507160038 | 53 | 90 | 6.0 | 9.0 | 0.00 | 0.00 | 0.00 | 98 | 1017.6 |
| 20260507154535 | 53 | 63 | 4.0 | 8.0 | 0.00 | 0.00 | 0.00 | 98 | 1017.7 |
| 20260507153032 | 53 | 70 | 5.0 | 10.0 | 0.00 | 0.00 | 0.00 | 98 | 1017.8 |
| 20260507151530 | 53 | 69 | 2.0 | 10.0 | 0.00 | 0.00 | 0.00 | 98 | 1017.6 |
| 20260507150028 | 53 | 113 | 5.0 | 9.0 | 0.00 | 0.00 | 0.00 | 98 | 1017.6 |
| 20260507144532 | 53 | 101 | 4.0 | 8.0 | 0.00 | 0.00 | 0.00 | 98 | 1017.6 |
| 20260507143025 | 52 | 91 | 4.0 | 9.0 | 0.00 | 0.00 | 0.00 | 98 | 1017.7 |
| 20260507141524 | 52 | 101 | 5.0 | 10.0 | 0.00 | 0.00 | 0.00 | 98 | 1017.6 |
| 20260507140021 | 53 | 99 | 6.0 | 11.0 | 0.00 | 0.00 | 0.00 | 98 | 1017.5 |
| 20260507134520 | 52 | 74 | 3.0 | 8.0 | 0.00 | 0.00 | 0.00 | 98 | 1017.2 |
| 20260507133018 | 52 | 53 | 2.0 | 7.0 | 0.00 | 0.00 | 0.00 | 97 | 1017.2 |
| 20260507131526 | 52 | 77 | 2.0 | 6.0 | 0.00 | 0.00 | 0.00 | 97 | 1017.2 |
| 20260507130019 | 52 | 91 | 1.0 | 8.0 | 0.00 | 0.00 | 0.00 | 97 | 1017.1 |
| 20260507124517 | 52 | 44 | 4.0 | 9.0 | 0.00 | 0.00 | 0.00 | 97 | 1017.1 |
| 20260507123013 | 53 | 74 | 4.0 | 9.0 | 0.00 | 0.00 | 0.00 | 97 | 1017.1 |
| 20260507121509 | 53 | 86 | 1.0 | 8.0 | 0.00 | 0.00 | 0.00 | 97 | 1017.1 |
| 20260507120025 | 53 | 87 | 2.0 | 7.0 | 0.00 | 0.00 | 0.00 | 96 | 1017.2 |
| 20260507114507 | 53 | 119 | 3.0 | 9.0 | 0.00 | 0.00 | 0.00 | 96 | 1017.2 |
| 20260507113029 | 53 | 97 | 4.0 | 7.0 | 0.00 | 0.00 | 0.00 | 96 | 1017.2 |
| 20260507111506 | 54 | 85 | 3.0 | 5.0 | 0.00 | 0.00 | 0.00 | 96 | 1017.2 |
| 20260507110010 | 54 | 92 | 1.0 | 4.0 | 0.00 | 0.00 | 0.00 | 96 | 1017.3 |
| 20260507104504 | 54 | 59 | 0.0 | 3.0 | 0.00 | 0.00 | 0.00 | 96 | 1017.2 |
| 20260507103002 | 53 | 59 | 0.0 | 3.0 | 0.00 | 0.00 | 0.00 | 96 | 1017.4 |
| 20260507101501 | 52 | 62 | 2.0 | 4.0 | 0.00 | 0.00 | 0.00 | 95 | 1017.5 |
| 20260507100112 | 52 | 260 | 0.0 | 0.0 | 0.00 | 0.00 | 0.00 | 95 | 1017.6 |
| 20260507094601 | 52 | 235 | 0.0 | 0.0 | 0.00 | 0.00 | 0.00 | 94 | 1017.5 |
| 20260507093057 | 53 | 235 | 0.0 | 1.0 | 0.00 | 0.00 | 0.00 | 94 | 1017.6 |
| 20260507091555 | 53 | 235 | 1.0 | 3.0 | 0.00 | 0.00 | 0.00 | 94 | 1017.6 |
| 20260507090055 | 54 | 107 | 0.0 | 2.0 | 0.00 | 0.00 | 0.00 | 94 | 1017.7 |
| 20260507084550 | 54 | 107 | 0.0 | 3.0 | 0.00 | 0.00 | 0.00 | 94 | 1017.9 |
| 20260507083049 | 54 | 76 | 3.0 | 8.0 | 0.00 | 0.00 | 0.00 | 94 | 1018.1 |
| 20260507081548 | 54 | 96 | 3.0 | 7.0 | 0.00 | 0.00 | 0.00 | 94 | 1018.1 |
| 20260507080045 | 54 | 54 | 4.0 | 9.0 | 0.00 | 0.00 | 0.00 | 94 | 1018.3 |
| 20260507074543 | 54 | 75 | 2.0 | 10.0 | 0.00 | 0.00 | 0.00 | 94 | 1018.5 |
| 20260507073047 | 55 | 46 | 5.0 | 11.0 | 0.00 | 0.00 | 0.00 | 94 | 1018.5 |
| 20260507071539 | 55 | 59 | 4.0 | 10.0 | 0.00 | 0.00 | 0.00 | 94 | 1018.5 |
| 20260507070041 | 55 | 51 | 4.0 | 12.0 | 0.00 | 0.00 | 0.00 | 94 | 1018.5 |
| 20260507064544 | 55 | 77 | 4.0 | 13.0 | 0.00 | 0.00 | 0.00 | 94 | 1018.7 |
| 20260507063046 | 55 | 49 | 6.0 | 10.0 | 0.00 | 0.00 | 0.00 | 93 | 1018.5 |
| 20260507061539 | 55 | 80 | 6.0 | 12.0 | 0.00 | 0.00 | 0.00 | 93 | 1018.6 |
| 20260507060033 | 55 | 61 | 4.0 | 10.0 | 0.00 | 0.00 | 0.00 | 93 | 1018.6 |
| 20260507054535 | 55 | 64 | 4.0 | 11.0 | 0.00 | 0.00 | 0.00 | 92 | 1018.6 |
| 20260507053036 | 55 | 27 | 6.0 | 11.0 | 0.00 | 0.00 | 0.00 | 92 | 1018.7 |
| 20260507051532 | 55 | 71 | 4.0 | 11.0 | 0.00 | 0.00 | 0.00 | 92 | 1018.6 |
| 20260507050035 | 56 | 78 | 4.0 | 11.0 | 0.00 | 0.00 | 0.00 | 92 | 1018.8 |
| 20260507044533 | 56 | 57 | 5.0 | 13.0 | 0.00 | 0.00 | 0.00 | 92 | 1018.7 |
| 20260507043032 | 56 | 103 | 4.0 | 12.0 | 0.00 | 0.00 | 0.00 | 92 | 1018.6 |
| 20260507041541 | 56 | 69 | 5.0 | 11.0 | 0.00 | 0.00 | 0.00 | 92 | 1018.5 |
| 20260507040030 | 56 | 63 | 6.0 | 10.0 | 0.00 | 0.00 | 0.00 | 91 | 1018.3 |
| 20260507034537 | 56 | 59 | 6.0 | 11.0 | 0.00 | 0.00 | 0.00 | 91 | 1018.2 |
| 20260507033029 | 56 | 71 | 4.0 | 11.0 | 0.00 | 0.00 | 0.00 | 91 | 1018.2 |
| 20260507031527 | 56 | 53 | 5.0 | 12.0 | 0.00 | 0.00 | 0.00 | 90 | 1018.0 |
| 20260507030027 | 56 | 80 | 5.0 | 12.0 | 0.00 | 0.00 | 0.00 | 90 | 1017.9 |
| 20260507024530 | 57 | 77 | 3.0 | 13.0 | 0.00 | 0.00 | 0.00 | 89 | 1017.8 |
| 20260507023025 | 57 | 80 | 5.0 | 10.0 | 0.00 | 0.00 | 0.00 | 88 | 1017.8 |
| 20260507021525 | 57 | 106 | 6.0 | 12.0 | 0.00 | 0.00 | 0.00 | 88 | 1017.8 |
| 20260507020026 | 58 | 93 | 6.0 | 15.0 | 0.00 | 0.00 | 0.00 | 87 | 1017.7 |
| 20260507014525 | 59 | 69 | 8.0 | 14.0 | 0.00 | 0.00 | 0.00 | 85 | 1017.8 |